Preview of NWS' New Version of Forecast
This preview is not operational and should not be used for support decisions.

Regional Weather Roundup (RWR)

Issued by National Weather Service (NWS)

                            
000
ASUS45 KABQ 231301
RWRNM 
NEW MEXICO REGIONAL WEATHER ROUNDUP
NATIONAL WEATHER SERVICE ALBUQUERQUE NM
700 AM MDT FRI AUG 23 2019

NOTE: "FAIR" MEANS FEW OR NO CLOUDS BELOW 12,000 FEET AGL WITH NO
       SIGNIFICANT WEATHER OR OBSTRUCTIONS TO VISION.

      THIS PRODUCT IS RELEASED AS TWO VERSIONS.  ONE VERSION NEAR
      THE TOP OF THE HOUR CONTAINING PRELIMINARY DATA FROM ALBUQUERQUE
      AND OTHER STATIONS.  A FINAL VERSION WITH ADDITIONAL DATA IS 
      ISSUED ABOUT 10 MINUTES AFTER THE HOUR.
 
NMZ501-503-504-510>518-231400-
NORTHWEST PLATEAU/NORTHCENTRAL MOUNTAINS
  
CITY           SKY/WX    TMP DP  RH WIND       PRES   REMARKS
FARMINGTON     FAIR      58  36  43 NE8       30.09R                  
LOS ALAMOS       N/A     61  49  64 S5        30.23R                  
SANTA FE       FAIR      59  50  72 CALM      30.18R                  
TAOS           FAIR      46  42  86 NW5       30.26R                  
ANGEL FIRE     MOCLDY    36  35  96 CALM      30.35R                  

$$
NMZ402-403-502-505>509-231400-
WESTCENTRAL MOUNTAINS/SOUTHWEST MOUNTAINS
  
CITY           SKY/WX    TMP DP  RH WIND       PRES   REMARKS
GALLUP         FAIR      53  27  36 CALM      30.22R                  
GRANTS         FAIR      52  31  45 CALM      30.21R                  
SILVER CITY    FAIR      64  50  61 N9        30.11S                  

$$
NMZ407-409-411-412-231400-
SOUTHERN DESERTS
  
CITY           SKY/WX    TMP DP  RH WIND       PRES   REMARKS
DEMING         FAIR      70  61  73 SW5       30.05R                  
LAS CRUCES     FAIR      69  57  64 SE5       30.07R                  
HOLLOMAN AFB   MOCLDY    75  56  52 S8        30.05R                  
ALAMOGORDO     FAIR      72  54  53 S7        30.05R                  
T OR C         MOCLDY    72  54  53 W3        30.07R                  

$$
NMZ519>523-231400-
CENTRAL VALLEYS/CENTRAL HIGHLANDS
  
CITY           SKY/WX    TMP DP  RH WIND       PRES   REMARKS
ALBUQUERQUE    MOCLDY    68  51  54 E6        30.10R                  
DOUBLE EAGLE   PTCLDY    57  46  67 VRB3      30.13S                  
CLINES CORNERS FAIR      55  51  86 SW12      30.22S                  
BELEN          FAIR      63  43  49 NW7       30.09S                  
SOCORRO        FAIR      65  48  55 S3        30.08R                  

$$
NMZ524>526-539-540-231400-
SOUTHCENTRAL MOUNTAINS
  
CITY           SKY/WX    TMP DP  RH WIND       PRES   REMARKS
RUIDOSO        FAIR      57  50  77 NW5       30.22F                  

$$
NMZ527>531-231400-
NORTHEAST HIGHLANDS/NORTHEAST PLAINS
  
CITY           SKY/WX    TMP DP  RH WIND       PRES   REMARKS
LAS VEGAS      FAIR      55  50  83 S10       30.20S                  
RATON          FAIR      50  43  77 E7        30.17R                  
CLAYTON        FAIR      67  49  52 SW12      30.07R                  

$$
NMZ532>537-231400-
EASTCENTRAL PLAINS
  
CITY           SKY/WX    TMP DP  RH WIND       PRES   REMARKS
SANTA ROSA     FAIR      64  59  85 CALM      30.10R                  
TUCUMCARI      FAIR      65  57  75 W3        30.04R                  
CANNON AFB     FAIR      63  59  87 SE6       30.09R                  
CLOVIS AIRPORT FAIR      61  58  90 SW5       30.09R                  

$$
NMZ028-029-538-231400-
SOUTHEAST PLAINS
  
CITY           SKY/WX    TMP DP  RH WIND       PRES   REMARKS
ROSWELL        FAIR      70  58  65 S12       30.03R                  
ARTESIA        FAIR      70  61  73 S12       30.05R                  
CARLSBAD       FAIR      68  59  73 S7        30.01F                  
HOBBS          PTCLDY    66  63  88 SE6       30.05F                  


$$